Location: Cz?stochówka
(50.8142°N, 19.0915°E)
Time: 16:46:02
(UTC+00:00)

Cosmos 1805 Rocket - Visible Passes

Search period start: 11 April 2026 00:00
Search period end: 21 April 2026 00:00
Orbit: 600 x 621 km, 82.5° (Epoch: 11 April)

Date Brightness Start Highest point End Pass type
(mag) Time Alt. Az. Time Alt. Az. Time Alt. Az.
11 Apr 6.5 03:04:35 10° NNE 03:08:08 23° ENE 03:11:39 10° ESE visible
11 Apr 7.0 18:56:44 10° W 18:59:06 14° WNW 19:01:28 10° NNW visible
12 Apr 5.6 03:18:55 10° N 03:23:00 35° ENE 03:27:03 10° SE visible
14 Apr 7.0 02:12:00 10° NNE 02:14:06 13° ENE 02:16:13 10° E visible
15 Apr 6.6 02:25:50 10° NNE 02:29:06 20° ENE 02:32:20 10° ESE visible
15 Apr 7.0 18:17:13 10° WSW 18:20:02 16° WNW 18:22:52 10° NNW visible
16 Apr 5.8 02:40:06 10° N 02:44:00 30° ENE 02:47:52 10° SE visible
16 Apr 7.5 18:33:56 10° WNW 18:35:04 11° WNW 18:36:11 10° NW visible
17 Apr 4.8 02:54:32 10° N 02:58:50 47° ENE 03:03:03 10° SSE visible
18 Apr 7.0 01:33:41 10° NE 01:35:02 11° ENE 01:36:22 10° ENE visible
19 Apr 6.6 01:47:08 10° NNE 01:50:02 17° ENE 01:52:55 10° ESE visible
20 Apr 6.0 02:01:17 10° NNE 02:04:58 25° ENE 02:08:38 10° SE visible
